[[{"header":{"parameterUnit":"m.s-1","parameterCategory":1,"la1":30.2991,"la2":30.254,"lo1":-89.0895,"lo2":-89.0444,"dy":0.0017,"dx":0.0017,"nx":28,"ny":28,"refTime":"2025-03-12T03:00:00:Z","depth":0,"parameterNumber":2,"parameterNumberName":"U-component_of_WINDS"},"data":[0,0,0,0,0,0,0,0,0,0,0,0,0,0,0,0,0,0,0,0,0,0,0,0,0,0,0,0,0,0,0,0,0,0,0,0,0,0,0,0,0,0,0,0,0,0,0,0,0,0,0,0,0,0,0,0,0,0,0.4408,0.4408,0,0.4456,0.4456,0.4457,0.4443,0.4442,0.4441,0.444,0.449,0.4492,0.4494,0,0,0,0,0,0,0,0,0,0,0,0,0,0.4304,0.4306,0.4408,0.4408,0.4409,0.4456,0.4456,0.4457,0.4443,0.4442,0.4441,0.444,0.4489,0.4492,0.4494,0,0,0,0,0,0,0,0,0,0,0,0,0,0.435,0.4307,0.4408,0.4408,0.4408,0.4456,0.4456,0.4457,0.4443,0.4442,0.444,0.4439,0.4488,0.4491,0.4495,0.4545,0,0,0.4505,0.4506,0,0,0,0,0,0,0,0,0.4348,0.4354,0.4407,0.4408,0.4408,0.4442,0.4438,0.4487,0.4444,0.443,0.444,0.4438,0.4475,0.4479,0.4492,0.4548,0.455,0.4505,0.4507,0.4509,0.451,0,0,0,0,0,0,0,0.4345,0.4352,0.4427,0.4408,0.4409,0.4405,0.441,0.4447,0.446,0.4431,0.443,0.4436,0.4475,0.4488,0.4493,0.455,0.4505,0.4508,0.451,0.4511,0.4651,0.4652,0,0,0,0,0,0,0.4341,0.435,0.4425,0.4428,0.4374,0.4408,0.4414,0.4433,0.446,0.4463,0.4437,0.4435,0.4483,0.4489,0.4494,0.4556,0.4509,0.4512,0.4514,0.4649,0.4651,0.4653,0,0,0,0,0,0,0.4339,0.4348,0.4423,0.4389,0.4398,0.4412,0.4433,0.4434,0.4448,0.4464,0.4467,0.4449,0.4482,0.449,0.4533,0.4557,0.4513,0.4516,0.4647,0.465,0.4652,0.4679,0,0,0,0,0,0,0.4336,0.4347,0.4367,0.4389,0.44,0.4461,0.4434,0.4436,0.4454,0.4451,0.4476,0.4478,0.4482,0.4528,0.4536,0.4561,0.4519,0.4645,0.4648,0.4651,0.4676,0.4682,0.4688,0,0,0,0,0,0.4332,0.4372,0.4368,0.4377,0.4424,0.4462,0.4469,0.4472,0.4456,0.4475,0.4486,0.4478,0.4553,0.4532,0.4542,0.4568,0.4643,0.4647,0.4651,0.4674,0.4681,0.4687,0,0,0,0,0,0,0.4352,0.4375,0.437,0.4419,0.4439,0.446,0.4485,0.4479,0.4504,0.4501,0.4504,0.451,0.4554,0.4565,0.4542,0.4619,0.4596,0.4602,0.461,0.4617,0.4623,0.462,0.4522,0,0,0,0,0,0.4362,0.4391,0.4409,0.445,0.4461,0.4471,0.4488,0.4488,0.4509,0.4518,0.4532,0.4552,0.4581,0.4599,0.4627,0.4677,0.4683,0.47,0.4706,0.471,0.4716,0.4744,0.4752,0.4665,0.4665,0.4665,0,0,0.4383,0.4399,0.4417,0.4455,0.447,0.45,0.4478,0.4511,0.4533,0.4523,0.4564,0.4575,0.4599,0.4646,0.4667,0.4657,0.4741,0.4715,0.4719,0.4722,0.4749,0.4757,0.4764,0.4668,0.4667,0.4667,0,0,0.4437,0.4452,0.4488,0.4504,0.4528,0.4534,0.4543,0.4565,0.4572,0.4614,0.4606,0.4633,0.4682,0.4699,0.4714,0.4774,0.4768,0.4783,0.4813,0.4841,0.4847,0.4854,0.4876,0.4884,0.4788,0.4788,0.4788,0,0.446,0.4505,0.4507,0.454,0.4557,0.4549,0.4585,0.4601,0.4632,0.4644,0.4632,0.4693,0.4708,0.4759,0.4774,0.4786,0.4797,0.4781,0.4846,0.4852,0.4858,0.4879,0.4888,0.479,0.479,0.4789,0.4789,0,0.4532,0.4564,0.459,0.4621,0.464,0.4675,0.4683,0.4702,0.4701,0.4709,0.4752,0.477,0.4801,0.4813,0.4812,0.4865,0.4857,0.4845,0.4823,0.4868,0.4888,0.4896,0.4792,0.4792,0.4791,0.4791,0,0,0.46,0.4632,0.4641,0.4655,0.4681,0.4705,0.474,0.477,0.4787,0.4809,0.4838,0.488,0.4869,0.4886,0.4887,0.4911,0.4959,0.4897,0.4897,0.4908,0.5018,0.5028,0.5037,0.4954,0.4956,0.4957,0.5017,0,0.4657,0.4718,0.472,0.4776,0.4805,0.4797,0.4827,0.4847,0.4855,0.4881,0.489,0.492,0.4903,0.4914,0.4937,0.4948,0.4981,0.4944,0.4982,0.4983,0.4977,0.5047,0.5057,0.5113,0.5024,0.5026,0.5027,0,0.4731,0.4755,0.4813,0.4835,0.4848,0.4875,0.4903,0.4927,0.4949,0.4953,0.4973,0.497,0.5006,0.4981,0.5031,0.5005,0.5021,0.5029,0.5031,0.5036,0.5008,0.5054,0.513,0.5139,0.5039,0.5038,0.5037,0,0.4775,0.4823,0.4864,0.4876,0.4902,0.4921,0.4933,0.4953,0.4971,0.4996,0.5007,0.5036,0.5051,0.5073,0.5079,0.506,0.5129,0.5104,0.5134,0.5134,0.5149,0.5148,0.523,0.5158,0.5158,0.5158,0.5158,0,0.4838,0.4875,0.4884,0.491,0.495,0.4953,0.4993,0.5003,0.5021,0.5049,0.5044,0.507,0.5075,0.5102,0.5106,0.5147,0.5154,0.5159,0.516,0.516,0.516,0.5171,0.5168,0.516,0.516,0.5159,0.5159,0,0.4895,0.4903,0.4948,0.4969,0.4975,0.5004,0.5022,0.5047,0.5054,0.5089,0.5098,0.511,0.5142,0.5149,0.5187,0.519,0.5238,0.5235,0.5231,0.5231,0.526,0.5258,0.5353,0.5366,0.5285,0.5286,0.5286,0,0.4935,0.4963,0.4987,0.5005,0.5018,0.5047,0.5065,0.5069,0.5089,0.5116,0.5137,0.5168,0.5193,0.5244,0.5257,0.5286,0.5284,0.5315,0.5288,0.5288,0.5285,0.5284,0.5287,0.5321,0.5321,0.5322,0.5323,0,0.5006,0.5008,0.5035,0.5063,0.5085,0.5108,0.5129,0.5144,0.5151,0.5173,0.5205,0.5225,0.5263,0.5295,0.5324,0.5336,0.5331,0.5331,0.5339,0.534,0.5337,0.534,0.5246,0.5329,0.5328,0.5328,0.5328,0.5327,0.5056,0.5081,0.5102,0.5131,0.5148,0.5168,0.5192,0.5203,0.523,0.5262,0.5262,0.5298,0.5319,0.5358,0.5372,0.54,0.5391,0.5403,0.5406,0.5409,0.5412,0.5332,0.5405,0.5405,0.5405,0.5405,0.5405,0,0.5127,0.514,0.5168,0.5198,0.5221,0.5214,0.5237,0.5257,0.5289,0.5309,0.5334,0.5371,0.5402,0.5417,0.5447,0.5466,0.5465,0.5474,0.5473,0.5476,0.5418,0.5409,0.5475,0.5475,0.5475,0.5475,0.5475,0.5475,0.5167,0.5208,0.5213,0.5262,0.5275,0.531,0.5324,0.5343,0.5359,0.5401,0.5426,0.5435,0.5454,0.5485,0.5513,0.5517,0.5528,0.5539,0.5542,0.5488,0.548,0.5474,0.5464,0.5542,0.5542,0.5598,0.5598,0.5598]},{"header":{"parameterUnit":"m.s-1","parameterCategory":1,"la1":30.2991,"la2":30.254,"lo1":-89.0895,"lo2":-89.0444,"dy":0.0017,"dx":0.0017,"nx":28,"ny":28,"refTime":"2025-03-12T03:00:00:Z","depth":0,"parameterNumber":3,"parameterNumberName":"V-component_of_WINDS"},"data":[0,0,0,0,0,0,0,0,0,0,0,0,0,0,0,0,0,0,0,0,0,0,0,0,0,0,0,0,0,0,0,0,0,0,0,0,0,0,0,0,0,0,0,0,0,0,0,0,0,0,0,0,0,0,0,0,0,0,1.9275,1.9274,0,1.9227,1.9226,1.9226,1.9198,1.9198,1.9198,1.9198,1.9148,1.9146,1.9145,0,0,0,0,0,0,0,0,0,0,0,0,0,1.9343,1.9342,1.9275,1.9274,1.9274,1.9227,1.9226,1.9225,1.9198,1.9198,1.9198,1.9198,1.9148,1.9147,1.9145,0,0,0,0,0,0,0,0,0,0,0,0,0,1.9306,1.9342,1.9275,1.9255,1.9252,1.9227,1.9226,1.9225,1.9198,1.9198,1.9198,1.9198,1.9149,1.9147,1.9145,1.9136,0,0,1.9139,1.9138,0,0,0,0,0,0,0,0,1.9308,1.9304,1.9258,1.9256,1.9253,1.9218,1.9232,1.9195,1.9198,1.9219,1.9198,1.9198,1.9171,1.9167,1.9159,1.9134,1.9131,1.9139,1.9138,1.9137,1.9136,0,0,0,0,0,0,0,1.9311,1.9306,1.9256,1.9258,1.9255,1.9248,1.9242,1.9225,1.9196,1.9217,1.9215,1.921,1.917,1.9161,1.9157,1.9131,1.9139,1.9137,1.9136,1.9135,1.9097,1.9097,0,0,0,0,0,0,1.9317,1.9308,1.9257,1.9254,1.9281,1.9247,1.924,1.923,1.9196,1.9191,1.921,1.9209,1.9164,1.916,1.9155,1.9143,1.9137,1.9135,1.9134,1.9096,1.9097,1.9097,0,0,0,0,0,0,1.9318,1.9313,1.9259,1.9281,1.9273,1.9246,1.9234,1.9229,1.9219,1.9191,1.9186,1.9205,1.9164,1.9158,1.9141,1.9141,1.9134,1.9133,1.9096,1.9097,1.9097,1.9119,0,0,0,0,0,0,1.932,1.9313,1.931,1.9281,1.9272,1.9246,1.9234,1.9228,1.9216,1.9214,1.9186,1.9181,1.9163,1.9144,1.9139,1.9138,1.9131,1.9096,1.9096,1.9097,1.9118,1.9119,1.9121,0,0,0,0,0,1.9323,1.9317,1.931,1.9304,1.9267,1.9246,1.9241,1.9221,1.9217,1.9213,1.9194,1.9182,1.9142,1.9143,1.9137,1.9135,1.9096,1.9096,1.9097,1.9117,1.9119,1.9121,0,0,0,0,0,0,1.9346,1.9313,1.9304,1.9289,1.9271,1.9242,1.9236,1.9224,1.9206,1.9205,1.9181,1.9175,1.916,1.9146,1.9147,1.9125,1.9118,1.9117,1.9135,1.9137,1.9139,1.9142,1.913,0,0,0,0,0,1.935,1.9336,1.9307,1.9297,1.9288,1.9264,1.9254,1.924,1.922,1.9212,1.9192,1.9173,1.9157,1.9146,1.9129,1.9116,1.9109,1.9112,1.9113,1.9115,1.9114,1.9107,1.9108,1.9097,1.9097,1.9097,0,0,1.9357,1.9337,1.9329,1.9301,1.9285,1.9271,1.9257,1.9243,1.9232,1.921,1.9193,1.9178,1.9155,1.914,1.9132,1.9128,1.9116,1.9115,1.9117,1.9115,1.9107,1.9109,1.9109,1.9098,1.9098,1.9098,0,0,1.9362,1.9346,1.9335,1.932,1.9296,1.928,1.9278,1.9251,1.924,1.9223,1.9206,1.9193,1.9164,1.9149,1.9137,1.9138,1.9126,1.9133,1.9142,1.9135,1.9136,1.9136,1.9137,1.9137,1.9133,1.9133,1.9133,0,1.9373,1.9352,1.9331,1.9318,1.9306,1.9286,1.9275,1.9261,1.9233,1.9226,1.9221,1.9185,1.9168,1.915,1.915,1.9142,1.9138,1.9136,1.9137,1.9138,1.9138,1.9138,1.9139,1.9134,1.9134,1.9134,1.9134,0,1.9367,1.9353,1.9347,1.9321,1.9309,1.9297,1.9275,1.9264,1.9252,1.9237,1.922,1.9199,1.9178,1.9172,1.916,1.9152,1.915,1.9142,1.9133,1.914,1.914,1.914,1.9136,1.9135,1.9135,1.9135,0,0,1.9385,1.9349,1.9347,1.9336,1.9309,1.9297,1.9284,1.9264,1.9256,1.9238,1.9227,1.9204,1.9196,1.9183,1.9168,1.9162,1.9165,1.9154,1.9154,1.9158,1.9156,1.9163,1.9164,1.9157,1.9157,1.9157,1.9158,0,1.9387,1.9364,1.9345,1.9329,1.9315,1.9296,1.9285,1.9268,1.9253,1.924,1.9223,1.9208,1.9198,1.919,1.9184,1.9166,1.9165,1.9166,1.9147,1.9146,1.9153,1.9163,1.917,1.9173,1.9158,1.9158,1.9158,0,1.9385,1.9369,1.9351,1.9326,1.932,1.9311,1.9291,1.9278,1.9258,1.9248,1.9234,1.9219,1.9205,1.9199,1.918,1.9181,1.9172,1.9163,1.9162,1.916,1.9153,1.9161,1.9173,1.9174,1.9158,1.9158,1.9158,0,1.9401,1.9374,1.936,1.935,1.9321,1.9315,1.9302,1.9282,1.9271,1.9254,1.9247,1.9228,1.9218,1.9204,1.9185,1.9182,1.9168,1.916,1.916,1.916,1.9158,1.9158,1.9168,1.9152,1.9152,1.9152,1.9152,0,1.9405,1.9395,1.9367,1.9358,1.9347,1.9326,1.9315,1.9301,1.9283,1.9272,1.9254,1.9244,1.9219,1.9206,1.9191,1.9178,1.9173,1.9165,1.9161,1.9166,1.9168,1.916,1.916,1.9152,1.9152,1.9152,1.9152,0,1.942,1.9401,1.9384,1.9358,1.9351,1.9344,1.9322,1.9313,1.9298,1.9284,1.9279,1.9255,1.9239,1.9219,1.9196,1.9186,1.9174,1.9168,1.9181,1.9179,1.918,1.918,1.9186,1.9186,1.917,1.917,1.917,0,1.9424,1.9416,1.9389,1.938,1.9369,1.9355,1.9344,1.9323,1.9313,1.929,1.9284,1.9266,1.9251,1.9226,1.9206,1.9189,1.9183,1.9186,1.918,1.9186,1.9183,1.9184,1.9183,1.9187,1.9188,1.9188,1.9188,0,1.9432,1.9424,1.9409,1.9391,1.9379,1.9364,1.9348,1.9341,1.9317,1.9307,1.929,1.9278,1.9255,1.9238,1.9219,1.9206,1.9193,1.919,1.9189,1.9195,1.9203,1.9199,1.9186,1.919,1.919,1.919,1.919,1.9189,1.9442,1.9435,1.9415,1.9399,1.9385,1.9371,1.9362,1.9346,1.9332,1.9311,1.93,1.9284,1.9265,1.9237,1.9225,1.9212,1.9207,1.9206,1.9206,1.9206,1.9208,1.9205,1.9208,1.9208,1.9208,1.9208,1.9208,0,1.945,1.9437,1.9423,1.9401,1.9389,1.9379,1.9361,1.9352,1.9338,1.9321,1.9307,1.9288,1.9272,1.9251,1.9234,1.9228,1.9221,1.9224,1.9224,1.9221,1.9212,1.9215,1.9229,1.9229,1.9229,1.9229,1.9229,1.9229,1.9453,1.944,1.9429,1.9409,1.9395,1.938,1.9371,1.9357,1.9344,1.9324,1.9311,1.9298,1.928,1.9261,1.9246,1.924,1.9235,1.9239,1.9232,1.9224,1.9222,1.922,1.9223,1.9238,1.9238,1.9241,1.9242,1.9242]}]]